| time (UTC) | temp C | wind direction | speed KPH | gust KPH | rain 1hr cm | rain 24hr cm | rain mn cm | humidity % | barometer mb |
| 20260505140244 | 21 | 157 | 3.2 | 11.3 | 0.00 | 0.00 | 0.00 | 44 | 1008.3 |
| 20260505130245 | 18 | 272 | 4.8 | 12.9 | 0.00 | 0.00 | 0.00 | 52 | 1009.0 |
| 20260505124748 | 17 | 259 | 4.8 | 8.0 | 0.00 | 0.00 | 0.00 | 54 | 1008.9 |
| 20260505124241 | 17 | 259 | 6.4 | 12.9 | 0.00 | 0.00 | 0.00 | 54 | 1008.7 |
| 20260505123744 | 17 | 203 | 6.4 | 12.9 | 0.00 | 0.00 | 0.00 | 54 | 1008.7 |
| 20260505123244 | 17 | 149 | 11.3 | 11.3 | 0.00 | 0.00 | 0.00 | 55 | 1008.7 |
| 20260505122744 | 16 | 146 | 3.2 | 9.7 | 0.00 | 0.00 | 0.00 | 55 | 1008.7 |
| 20260505122241 | 16 | 132 | 8.0 | 11.3 | 0.00 | 0.00 | 0.00 | 55 | 1008.7 |
| 20260505121748 | 16 | 233 | 3.2 | 16.1 | 0.00 | 0.00 | 0.00 | 56 | 1008.7 |
| 20260505121244 | 16 | 282 | 3.2 | 12.9 | 0.00 | 0.00 | 0.00 | 57 | 1008.6 |
| 20260505120741 | 16 | 212 | 3.2 | 11.3 | 0.00 | 0.00 | 0.00 | 57 | 1008.6 |
| 20260505120247 | 16 | 158 | 6.4 | 12.9 | 0.00 | 0.00 | 0.00 | 57 | 1008.6 |
| 20260505115744 | 16 | 240 | 4.8 | 11.3 | 0.00 | 0.00 | 0.00 | 58 | 1008.5 |
| 20260505115244 | 16 | 213 | 3.2 | 8.0 | 0.00 | 0.00 | 0.00 | 58 | 1008.5 |
| 20260505114741 | 16 | 213 | 3.2 | 8.0 | 0.00 | 0.00 | 0.00 | 58 | 1008.5 |
| 20260505114241 | 16 | 230 | 3.2 | 6.4 | 0.00 | 0.00 | 0.00 | 59 | 1008.4 |
| 20260505113741 | 15 | 253 | 3.2 | 16.1 | 0.00 | 0.00 | 0.00 | 59 | 1008.4 |
| 20260505113241 | 15 | 166 | 3.2 | 11.3 | 0.00 | 0.00 | 0.00 | 59 | 1008.4 |
| 20260505112744 | 15 | 173 | 8.0 | 14.5 | 0.00 | 0.00 | 0.00 | 60 | 1008.4 |
| 20260505112241 | 15 | 234 | 1.6 | 12.9 | 0.00 | 0.00 | 0.00 | 60 | 1008.4 |
| 20260505111744 | 15 | 229 | 3.2 | 11.3 | 0.00 | 0.00 | 0.00 | 60 | 1008.4 |
| 20260505111247 | 15 | 232 | 1.6 | 6.4 | 0.00 | 0.00 | 0.00 | 60 | 1008.2 |
| 20260505110744 | 15 | 231 | 1.6 | 4.8 | 0.00 | 0.00 | 0.00 | 60 | 1008.2 |
| 20260505110244 | 15 | 231 | 1.6 | 8.0 | 0.00 | 0.00 | 0.00 | 60 | 1008.2 |
| 20260505101744 | 15 | 218 | 3.2 | 11.3 | 0.00 | 0.00 | 0.00 | 59 | 1007.9 |
| 20260505101241 | 15 | 217 | 3.2 | 9.7 | 0.00 | 0.00 | 0.00 | 59 | 1007.7 |
| 20260505100741 | 15 | 217 | 3.2 | 11.3 | 0.00 | 0.00 | 0.00 | 59 | 1007.7 |
| 20260505100242 | 15 | 220 | 1.6 | 9.7 | 0.00 | 0.00 | 0.00 | 59 | 1007.7 |
| 20260505095741 | 15 | 223 | 3.2 | 6.4 | 0.00 | 0.00 | 0.00 | 59 | 1007.5 |
| 20260505095241 | 15 | 223 | 6.4 | 8.0 | 0.00 | 0.00 | 0.00 | 59 | 1007.5 |
| 20260505094741 | 15 | 225 | 1.6 | 9.7 | 0.00 | 0.00 | 0.00 | 58 | 1007.5 |
| 20260505094242 | 15 | 227 | 1.6 | 8.0 | 0.00 | 0.00 | 0.00 | 58 | 1007.5 |
| 20260505093744 | 15 | 224 | 4.8 | 9.7 | 0.00 | 0.00 | 0.00 | 58 | 1007.5 |
| 20260505093244 | 15 | 224 | 1.6 | 9.7 | 0.00 | 0.00 | 0.00 | 58 | 1007.5 |
| 20260505092741 | 15 | 225 | 8.0 | 8.0 | 0.00 | 0.00 | 0.00 | 58 | 1007.5 |
| 20260505092247 | 15 | 225 | 1.6 | 8.0 | 0.00 | 0.00 | 0.00 | 58 | 1007.5 |
| 20260505091747 | 15 | 227 | 1.6 | 8.0 | 0.00 | 0.00 | 0.00 | 58 | 1007.5 |
| 20260505091244 | 15 | 227 | 1.6 | 9.7 | 0.00 | 0.00 | 0.00 | 58 | 1007.6 |
| 20260505090751 | 15 | 228 | 9.7 | 12.9 | 0.00 | 0.00 | 0.00 | 58 | 1007.6 |
| 20260505090241 | 15 | 217 | 3.2 | 8.0 | 0.00 | 0.00 | 0.00 | 58 | 1007.6 |
| 20260505085741 | 15 | 218 | 3.2 | 11.3 | 0.00 | 0.00 | 0.00 | 58 | 1007.5 |
| 20260505085243 | 15 | 221 | 4.8 | 9.7 | 0.00 | 0.00 | 0.00 | 58 | 1007.5 |
| 20260505084745 | 15 | 221 | 4.8 | 12.9 | 0.00 | 0.00 | 0.00 | 58 | 1007.5 |
| 20260505084244 | 15 | 214 | 4.8 | 9.7 | 0.00 | 0.00 | 0.00 | 58 | 1007.5 |
| 20260505083745 | 15 | 223 | 3.2 | 6.4 | 0.00 | 0.00 | 0.00 | 58 | 1007.5 |
| 20260505083241 | 15 | 224 | 3.2 | 9.7 | 0.00 | 0.00 | 0.00 | 58 | 1007.5 |
| 20260505082744 | 15 | 223 | 4.8 | 9.7 | 0.00 | 0.00 | 0.00 | 58 | 1007.5 |
| 20260505082245 | 15 | 213 | 0.0 | 11.3 | 0.00 | 0.00 | 0.00 | 57 | 1007.5 |
| 20260505081741 | 15 | 229 | 1.6 | 6.4 | 0.00 | 0.00 | 0.00 | 57 | 1007.5 |
| 20260505081244 | 15 | 229 | 3.2 | 12.9 | 0.00 | 0.00 | 0.00 | 57 | 1007.5 |
| 20260505080747 | 15 | 169 | 1.6 | 8.0 | 0.00 | 0.00 | 0.00 | 57 | 1007.5 |
| 20260505080250 | 15 | 169 | 6.4 | 6.4 | 0.00 | 0.00 | 0.00 | 57 | 1007.5 |
| 20260505075744 | 15 | 169 | 0.0 | 3.2 | 0.00 | 0.00 | 0.00 | 56 | 1007.5 |
| 20260505075242 | 16 | 169 | 1.6 | 8.0 | 0.00 | 0.00 | 0.00 | 57 | 1007.5 |
| 20260505074744 | 16 | 169 | 0.0 | 11.3 | 0.00 | 0.00 | 0.00 | 57 | 1007.6 |
| 20260505074244 | 16 | 169 | 3.2 | 9.7 | 0.00 | 0.00 | 0.00 | 57 | 1007.5 |
| 20260505073744 | 16 | 168 | 1.6 | 12.9 | 0.00 | 0.00 | 0.00 | 57 | 1007.5 |
| 20260505073247 | 16 | 180 | 3.2 | 12.9 | 0.00 | 0.00 | 0.00 | 57 | 1007.5 |
| 20260505072742 | 16 | 174 | 3.2 | 11.3 | 0.00 | 0.00 | 0.00 | 56 | 1007.5 |
| 20260505072247 | 16 | 183 | 4.8 | 6.4 | 0.00 | 0.00 | 0.00 | 56 | 1007.5 |
| 20260505071747 | 16 | 187 | 3.2 | 4.8 | 0.00 | 0.00 | 0.00 | 56 | 1007.5 |
| 20260505071244 | 16 | 187 | 3.2 | 6.4 | 0.00 | 0.00 | 0.00 | 56 | 1007.5 |
| 20260505070744 | 16 | 187 | 1.6 | 6.4 | 0.00 | 0.00 | 0.00 | 56 | 1007.5 |
| 20260505070242 | 16 | 187 | 1.6 | 3.2 | 0.00 | 0.00 | 0.00 | 56 | 1007.5 |
| 20260505065744 | 16 | 187 | 1.6 | 4.8 | 0.00 | 0.00 | 0.00 | 56 | 1007.3 |
| 20260505065244 | 16 | 187 | 1.6 | 4.8 | 0.00 | 0.00 | 0.00 | 56 | 1007.3 |
| 20260505064747 | 16 | 187 | 3.2 | 4.8 | 0.00 | 0.00 | 0.00 | 56 | 1007.3 |
| 20260505064242 | 16 | 187 | 0.0 | 4.8 | 0.00 | 0.00 | 0.00 | 56 | 1007.4 |
| 20260505063750 | 16 | 187 | 0.0 | 3.2 | 0.00 | 0.00 | 0.00 | 55 | 1007.4 |
| 20260505063241 | 16 | 187 | 4.8 | 6.4 | 0.00 | 0.00 | 0.00 | 55 | 1007.4 |
| 20260505062741 | 16 | 187 | 0.0 | 4.8 | 0.00 | 0.00 | 0.00 | 55 | 1007.5 |
| 20260505062244 | 16 | 187 | 0.0 | 4.8 | 0.00 | 0.00 | 0.00 | 55 | 1007.5 |
| 20260505061742 | 16 | 187 | 1.6 | 6.4 | 0.00 | 0.00 | 0.00 | 55 | 1007.5 |
| 20260505061241 | 16 | 187 | 1.6 | 6.4 | 0.00 | 0.00 | 0.00 | 54 | 1007.6 |
| 20260505060742 | 16 | 186 | 3.2 | 8.0 | 0.00 | 0.00 | 0.00 | 54 | 1007.6 |
| 20260505060245 | 16 | 186 | 0.0 | 4.8 | 0.00 | 0.00 | 0.00 | 55 | 1007.6 |
| 20260505055744 | 16 | 186 | 0.0 | 1.6 | 0.00 | 0.00 | 0.00 | 55 | 1007.7 |
| 20260505055250 | 16 | 186 | 0.0 | 1.6 | 0.00 | 0.00 | 0.00 | 55 | 1007.7 |
| 20260505054745 | 16 | 186 | 0.0 | 3.2 | 0.00 | 0.00 | 0.00 | 54 | 1007.7 |
| 20260505054247 | 16 | 186 | 0.0 | 4.8 | 0.00 | 0.00 | 0.00 | 54 | 1007.7 |
| 20260505053742 | 16 | 186 | 0.0 | 8.0 | 0.00 | 0.00 | 0.00 | 54 | 1007.7 |
| 20260505053241 | 16 | 186 | 1.6 | 4.8 | 0.00 | 0.00 | 0.00 | 54 | 1007.7 |
| 20260505052747 | 16 | 186 | 1.6 | 6.4 | 0.00 | 0.00 | 0.00 | 54 | 1007.7 |
| 20260505052244 | 16 | 186 | 1.6 | 6.4 | 0.00 | 0.00 | 0.00 | 54 | 1007.7 |
| 20260505051745 | 16 | 186 | 1.6 | 6.4 | 0.00 | 0.00 | 0.00 | 54 | 1007.7 |
| 20260505051250 | 16 | 186 | 1.6 | 6.4 | 0.00 | 0.00 | 0.00 | 55 | 1007.7 |
| 20260505050747 | 16 | 187 | 4.8 | 8.0 | 0.00 | 0.00 | 0.00 | 55 | 1007.7 |
| 20260505050245 | 16 | 187 | 6.4 | 9.7 | 0.00 | 0.00 | 0.00 | 56 | 1007.7 |
| 20260505041744 | 15 | 142 | 1.6 | 6.4 | 0.00 | 0.00 | 0.00 | 57 | 1007.6 |
| 20260505041241 | 15 | 142 | 1.6 | 3.2 | 0.00 | 0.00 | 0.00 | 57 | 1007.6 |
| 20260505040747 | 15 | 142 | 0.0 | 3.2 | 0.00 | 0.00 | 0.00 | 57 | 1007.6 |
| 20260505040241 | 15 | 142 | 0.0 | 3.2 | 0.00 | 0.00 | 0.00 | 56 | 1007.6 |
| 20260505035742 | 15 | 142 | 0.0 | 3.2 | 0.00 | 0.00 | 0.00 | 56 | 1007.7 |
| 20260505035251 | 16 | 142 | 1.6 | 3.2 | 0.00 | 0.00 | 0.00 | 56 | 1007.7 |
| 20260505034744 | 16 | 142 | 0.0 | 1.6 | 0.00 | 0.00 | 0.00 | 56 | 1007.7 |
| 20260505034247 | 16 | 142 | 0.0 | 8.0 | 0.00 | 0.00 | 0.00 | 55 | 1007.7 |
| 20260505033741 | 16 | 142 | 0.0 | 1.6 | 0.00 | 0.00 | 0.00 | 55 | 1007.7 |
| 20260505033250 | 16 | 142 | 0.0 | 0.0 | 0.00 | 0.00 | 0.00 | 54 | 1007.7 |
| 20260505032747 | 16 | 142 | 0.0 | 3.2 | 0.00 | 0.00 | 0.00 | 54 | 1007.6 |
| 20260505032241 | 16 | 142 | 0.0 | 1.6 | 0.00 | 0.00 | 0.00 | 53 | 1007.6 |
| 20260505031744 | 16 | 142 | 1.6 | 3.2 | 0.00 | 0.00 | 0.00 | 53 | 1007.6 |
| 20260505031241 | 16 | 142 | 0.0 | 0.0 | 0.00 | 0.00 | 0.00 | 52 | 1007.5 |
| 20260505030744 | 17 | 142 | 0.0 | 0.0 | 0.00 | 0.00 | 0.00 | 52 | 1007.5 |
| 20260505030247 | 17 | 142 | 0.0 | 0.0 | 0.00 | 0.00 | 0.00 | 52 | 1007.5 |
| 20260505025745 | 17 | 142 | 0.0 | 1.6 | 0.00 | 0.00 | 0.00 | 51 | 1007.7 |
| 20260505025248 | 17 | 142 | 0.0 | 0.0 | 0.00 | 0.00 | 0.00 | 51 | 1007.7 |
| 20260505024747 | 17 | 142 | 0.0 | 0.0 | 0.00 | 0.00 | 0.00 | 49 | 1007.7 |
| 20260505024241 | 17 | 142 | 0.0 | 0.0 | 0.00 | 0.00 | 0.00 | 48 | 1007.7 |
| 20260505023744 | 18 | 142 | 0.0 | 0.0 | 0.00 | 0.00 | 0.00 | 47 | 1007.7 |
| 20260505023245 | 18 | 142 | 0.0 | 3.2 | 0.00 | 0.00 | 0.00 | 47 | 1007.7 |
| 20260505022745 | 18 | 142 | 0.0 | 0.0 | 0.00 | 0.00 | 0.00 | 46 | 1007.4 |
| 20260505022241 | 18 | 142 | 0.0 | 1.6 | 0.00 | 0.00 | 0.00 | 47 | 1007.4 |
| 20260505021742 | 18 | 142 | 0.0 | 6.4 | 0.00 | 0.00 | 0.00 | 47 | 1007.4 |
| 20260505021244 | 19 | 142 | 1.6 | 3.2 | 0.00 | 0.00 | 0.00 | 47 | 1007.5 |
| 20260505020741 | 19 | 142 | 0.0 | 3.2 | 0.00 | 0.00 | 0.00 | 45 | 1007.5 |
| 20260505020244 | 19 | 142 | 3.2 | 8.0 | 0.00 | 0.00 | 0.00 | 41 | 1007.5 |
| 20260505015750 | 19 | 142 | 0.0 | 8.0 | 0.00 | 0.00 | 0.00 | 40 | 1007.4 |
| 20260505015247 | 20 | 142 | 1.6 | 6.4 | 0.00 | 0.00 | 0.00 | 40 | 1007.4 |
| 20260505014741 | 20 | 142 | 1.6 | 8.0 | 0.00 | 0.00 | 0.00 | 39 | 1007.4 |
| 20260505014242 | 20 | 142 | 0.0 | 6.4 | 0.00 | 0.00 | 0.00 | 39 | 1007.0 |
| 20260505013741 | 20 | 142 | 3.2 | 3.2 | 0.00 | 0.00 | 0.00 | 41 | 1007.0 |
| 20260505013244 | 20 | 142 | 1.6 | 6.4 | 0.00 | 0.00 | 0.00 | 39 | 1007.0 |
| 20260505012744 | 20 | 142 | 3.2 | 6.4 | 0.00 | 0.00 | 0.00 | 37 | 1007.2 |
| 20260505012252 | 20 | 142 | 1.6 | 8.0 | 0.00 | 0.00 | 0.00 | 37 | 1007.2 |
| 20260505011742 | 21 | 142 | 1.6 | 8.0 | 0.00 | 0.00 | 0.00 | 36 | 1007.2 |
| 20260505011247 | 21 | 142 | 6.4 | 6.4 | 0.00 | 0.00 | 0.00 | 36 | 1007.1 |
| 20260505010747 | 21 | 142 | 3.2 | 8.0 | 0.00 | 0.00 | 0.00 | 35 | 1007.1 |
| 20260505010241 | 21 | 142 | 3.2 | 3.2 | 0.00 | 0.00 | 0.00 | 36 | 1007.1 |
| 20260505005742 | 21 | 142 | 1.6 | 6.4 | 0.00 | 0.00 | 0.00 | 34 | 1006.9 |
| 20260505005241 | 21 | 142 | 1.6 | 8.0 | 0.00 | 0.00 | 0.00 | 34 | 1006.9 |
| 20260505004745 | 21 | 142 | 1.6 | 8.0 | 0.00 | 0.00 | 0.00 | 33 | 1006.9 |
| 20260505004244 | 21 | 142 | 0.0 | 9.7 | 0.00 | 0.00 | 0.00 | 33 | 1006.8 |
| 20260505003747 | 21 | 142 | 1.6 | 9.7 | 0.00 | 0.00 | 0.00 | 33 | 1006.8 |
| 20260505003247 | 21 | 139 | 3.2 | 9.7 | 0.00 | 0.00 | 0.00 | 33 | 1006.8 |
| 20260505002741 | 22 | 138 | 8.0 | 11.3 | 0.00 | 0.00 | 0.00 | 32 | 1006.8 |
| 20260505002247 | 22 | 132 | 1.6 | 14.5 | 0.00 | 0.00 | 0.00 | 32 | 1006.8 |
| 20260505001741 | 22 | 157 | 8.0 | 12.9 | 0.00 | 0.00 | 0.00 | 32 | 1006.8 |
| 20260505001244 | 22 | 139 | 3.2 | 14.5 | 0.00 | 0.00 | 0.00 | 31 | 1006.7 |
| 20260505000744 | 22 | 166 | 8.0 | 12.9 | 0.00 | 0.00 | 0.00 | 31 | 1006.7 |
| 20260505000244 | 22 | 146 | 3.2 | 12.9 | 0.00 | 0.00 | 0.00 | 31 | 1006.7 |
| 20260504235743 | 22 | 138 | 6.4 | 14.5 | 0.00 | 0.00 | 0.00 | 31 | 1006.7 |
| 20260504235248 | 22 | 171 | 0.0 | 9.7 | 0.00 | 0.00 | 0.00 | 31 | 1006.7 |
| 20260504234741 | 22 | 236 | 1.6 | 12.9 | 0.00 | 0.00 | 0.00 | 30 | 1006.7 |
| 20260504234241 | 22 | 157 | 6.4 | 12.9 | 0.00 | 0.00 | 0.00 | 29 | 1006.7 |
| 20260504233741 | 22 | 177 | 0.0 | 14.5 | 0.00 | 0.00 | 0.00 | 29 | 1006.7 |
| 20260504233241 | 22 | 125 | 6.4 | 12.9 | 0.00 | 0.00 | 0.00 | 29 | 1006.7 |
| 20260504232744 | 23 | 178 | 8.0 | 11.3 | 0.00 | 0.00 | 0.00 | 28 | 1006.6 |
| 20260504232248 | 23 | 165 | 6.4 | 14.5 | 0.00 | 0.00 | 0.00 | 27 | 1006.6 |
| 20260504231744 | 23 | 183 | 1.6 | 11.3 | 0.00 | 0.00 | 0.00 | 27 | 1006.6 |
| 20260504231241 | 23 | 202 | 6.4 | 17.7 | 0.00 | 0.00 | 0.00 | 28 | 1006.7 |
| 20260504230741 | 23 | 162 | 3.2 | 12.9 | 0.00 | 0.00 | 0.00 | 27 | 1006.7 |
| 20260504230247 | 23 | 203 | 3.2 | 20.9 | 0.00 | 0.00 | 0.00 | 28 | 1006.7 |
| 20260504225741 | 23 | 110 | 9.7 | 17.7 | 0.00 | 0.00 | 0.00 | 27 | 1006.6 |
| 20260504225241 | 23 | 289 | 9.7 | 25.7 | 0.00 | 0.00 | 0.00 | 28 | 1006.6 |
| 20260504224747 | 23 | 192 | 12.9 | 22.5 | 0.00 | 0.00 | 0.00 | 27 | 1006.6 |
| 20260504224247 | 23 | 155 | 8.0 | 20.9 | 0.00 | 0.00 | 0.00 | 27 | 1006.4 |
| 20260504223744 | 23 | 196 | 11.3 | 22.5 | 0.00 | 0.00 | 0.00 | 27 | 1006.4 |
| 20260504223251 | 23 | 215 | 8.0 | 19.3 | 0.00 | 0.00 | 0.00 | 27 | 1006.4 |
| 20260504222748 | 23 | 148 | 14.5 | 22.5 | 0.00 | 0.00 | 0.00 | 26 | 1006.4 |
| 20260504222247 | 23 | 164 | 12.9 | 19.3 | 0.00 | 0.00 | 0.00 | 26 | 1006.4 |
| 20260504221744 | 23 | 177 | 9.7 | 14.5 | 0.00 | 0.00 | 0.00 | 26 | 1006.4 |
| 20260504221250 | 24 | 279 | 3.2 | 11.3 | 0.00 | 0.00 | 0.00 | 26 | 1006.4 |
| 20260504220741 | 24 | 227 | 6.4 | 22.5 | 0.00 | 0.00 | 0.00 | 26 | 1006.4 |
| 20260504220242 | 24 | 150 | 6.4 | 27.4 | 0.00 | 0.00 | 0.00 | 25 | 1006.4 |
| 20260504215741 | 25 | 207 | 9.7 | 12.9 | 0.00 | 0.00 | 0.00 | 26 | 1006.5 |
| 20260504215241 | 25 | 254 | 6.4 | 17.7 | 0.00 | 0.00 | 0.00 | 26 | 1006.5 |
| 20260504214750 | 25 | 155 | 9.7 | 20.9 | 0.00 | 0.00 | 0.00 | 25 | 1006.5 |
| 20260504214241 | 25 | 152 | 9.7 | 11.3 | 0.00 | 0.00 | 0.00 | 25 | 1006.5 |
| 20260504213744 | 25 | 103 | 6.4 | 19.3 | 0.00 | 0.00 | 0.00 | 25 | 1006.5 |
| 20260504213244 | 25 | 217 | 3.2 | 14.5 | 0.00 | 0.00 | 0.00 | 25 | 1006.5 |
| 20260504212745 | 25 | 152 | 8.0 | 17.7 | 0.00 | 0.00 | 0.00 | 24 | 1006.6 |
| 20260504212241 | 25 | 192 | 1.6 | 16.1 | 0.00 | 0.00 | 0.00 | 24 | 1006.6 |
| 20260504211748 | 25 | 162 | 1.6 | 16.1 | 0.00 | 0.00 | 0.00 | 24 | 1006.5 |
| 20260504211241 | 26 | 182 | 16.1 | 20.9 | 0.00 | 0.00 | 0.00 | 25 | 1006.6 |
| 20260504210741 | 26 | 169 | 9.7 | 17.7 | 0.00 | 0.00 | 0.00 | 24 | 1006.6 |
| 20260504210242 | 26 | 135 | 8.0 | 19.3 | 0.00 | 0.00 | 0.00 | 25 | 1006.6 |
| 20260504205747 | 26 | 139 | 6.4 | 19.3 | 0.00 | 0.00 | 0.00 | 24 | 1006.5 |
| 20260504205244 | 26 | 159 | 19.3 | 24.1 | 0.00 | 0.00 | 0.00 | 23 | 1006.5 |
| 20260504204741 | 26 | 126 | 8.0 | 16.1 | 0.00 | 0.00 | 0.00 | 23 | 1006.5 |
| 20260504204241 | 26 | 115 | 8.0 | 17.7 | 0.00 | 0.00 | 0.00 | 23 | 1006.6 |
| 20260504203741 | 26 | 148 | 12.9 | 16.1 | 0.00 | 0.00 | 0.00 | 25 | 1006.6 |
| 20260504203241 | 26 | 220 | 9.7 | 20.9 | 0.00 | 0.00 | 0.00 | 23 | 1006.6 |
| 20260504202741 | 26 | 150 | 3.2 | 16.1 | 0.00 | 0.00 | 0.00 | 23 | 1006.9 |
| 20260504202251 | 26 | 135 | 3.2 | 14.5 | 0.00 | 0.00 | 0.00 | 23 | 1006.8 |
| 20260504201741 | 26 | 171 | 11.3 | 14.5 | 0.00 | 0.00 | 0.00 | 24 | 1006.8 |
| 20260504201241 | 26 | 192 | 8.0 | 12.9 | 0.00 | 0.00 | 0.00 | 24 | 1007.0 |
| 20260504200745 | 26 | 206 | 3.2 | 16.1 | 0.00 | 0.00 | 0.00 | 23 | 1007.0 |
| 20260504200242 | 26 | 292 | 4.8 | 12.9 | 0.00 | 0.00 | 0.00 | 25 | 1007.0 |
| 20260504195751 | 26 | 153 | 3.2 | 17.7 | 0.00 | 0.00 | 0.00 | 24 | 1007.1 |
| 20260504195246 | 26 | 132 | 6.4 | 24.1 | 0.00 | 0.00 | 0.00 | 22 | 1007.1 |
| 20260504194742 | 26 | 153 | 8.0 | 14.5 | 0.00 | 0.00 | 0.00 | 27 | 1007.1 |
| 20260504194244 | 26 | 194 | 3.2 | 12.9 | 0.00 | 0.00 | 0.00 | 23 | 1007.5 |
| 20260504193744 | 26 | 146 | 0.0 | 16.1 | 0.00 | 0.00 | 0.00 | 25 | 1007.5 |
| 20260504193247 | 26 | 203 | 8.0 | 12.9 | 0.00 | 0.00 | 0.00 | 25 | 1007.5 |
| 20260504192741 | 26 | 258 | 0.0 | 11.3 | 0.00 | 0.00 | 0.00 | 25 | 1007.6 |
| 20260504192241 | 26 | 196 | 3.2 | 8.0 | 0.00 | 0.00 | 0.00 | 28 | 1007.6 |
| 20260504191747 | 26 | 200 | 6.4 | 12.9 | 0.00 | 0.00 | 0.00 | 25 | 1007.6 |
| 20260504191247 | 26 | 156 | 8.0 | 22.5 | 0.00 | 0.00 | 0.00 | 25 | 1007.9 |
| 20260504190741 | 26 | 171 | 8.0 | 16.1 | 0.00 | 0.00 | 0.00 | 25 | 1007.9 |
| 20260504190241 | 26 | 173 | 11.3 | 16.1 | 0.00 | 0.00 | 0.00 | 25 | 1007.9 |
| 20260504185741 | 26 | 214 | 4.8 | 14.5 | 0.00 | 0.00 | 0.00 | 25 | 1008.1 |
| 20260504185241 | 25 | 263 | 4.8 | 16.1 | 0.00 | 0.00 | 0.00 | 26 | 1008.1 |
| 20260504184747 | 26 | 165 | 9.7 | 17.7 | 0.00 | 0.00 | 0.00 | 24 | 1008.1 |
| 20260504184244 | 26 | 224 | 3.2 | 20.9 | 0.00 | 0.00 | 0.00 | 23 | 1008.0 |
| 20260504183747 | 26 | 164 | 6.4 | 30.6 | 0.00 | 0.00 | 0.00 | 24 | 1008.0 |
| 20260504183244 | 26 | 87 | 12.9 | 24.1 | 0.00 | 0.00 | 0.00 | 25 | 1008.0 |
| 20260504182741 | 26 | 207 | 6.4 | 19.3 | 0.00 | 0.00 | 0.00 | 25 | 1008.5 |
| 20260504182241 | 26 | 96 | 3.2 | 14.5 | 0.00 | 0.00 | 0.00 | 26 | 1008.5 |
| 20260504181741 | 26 | 241 | 6.4 | 12.9 | 0.00 | 0.00 | 0.00 | 24 | 1008.5 |
| 20260504181241 | 26 | 167 | 3.2 | 14.5 | 0.00 | 0.00 | 0.00 | 22 | 1008.5 |
| 20260504180745 | 26 | 173 | 6.4 | 17.7 | 0.00 | 0.00 | 0.00 | 22 | 1008.5 |
| 20260504180241 | 26 | 128 | 6.4 | 17.7 | 0.00 | 0.00 | 0.00 | 23 | 1008.5 |
| 20260504175742 | 26 | 154 | 14.5 | 16.1 | 0.00 | 0.00 | 0.00 | 23 | 1008.6 |
| 20260504175244 | 26 | 156 | 9.7 | 14.5 | 0.00 | 0.00 | 0.00 | 22 | 1008.6 |
| 20260504174745 | 26 | 211 | 1.6 | 11.3 | 0.00 | 0.00 | 0.00 | 24 | 1008.6 |
| 20260504174242 | 25 | 297 | 3.2 | 14.5 | 0.00 | 0.00 | 0.00 | 24 | 1008.8 |
| 20260504173744 | 25 | 267 | 3.2 | 19.3 | 0.00 | 0.00 | 0.00 | 23 | 1008.8 |
| 20260504173241 | 25 | 213 | 6.4 | 17.7 | 0.00 | 0.00 | 0.00 | 24 | 1008.8 |
| 20260504172744 | 25 | 158 | 8.0 | 12.9 | 0.00 | 0.00 | 0.00 | 22 | 1009.0 |
| 20260504172242 | 25 | 170 | 9.7 | 19.3 | 0.00 | 0.00 | 0.00 | 23 | 1009.0 |
| 20260504171741 | 25 | 300 | 1.6 | 11.3 | 0.00 | 0.00 | 0.00 | 25 | 1009.0 |
| 20260504171244 | 25 | 313 | 3.2 | 12.9 | 0.00 | 0.00 | 0.00 | 23 | 1009.3 |
| 20260504170741 | 25 | 271 | 8.0 | 12.9 | 0.00 | 0.00 | 0.00 | 24 | 1009.3 |
| 20260504170247 | 25 | 187 | 1.6 | 16.1 | 0.00 | 0.00 | 0.00 | 25 | 1009.3 |
| 20260504160248 | 23 | 233 | 4.8 | 14.5 | 0.00 | 0.00 | 0.00 | 27 | 1010.0 |
| 20260504150745 | 21 | 185 | 4.8 | 16.1 | 0.00 | 0.00 | 0.00 | 27 | 1010.5 |
| 20260504150244 | 21 | 214 | 4.8 | 17.7 | 0.00 | 0.00 | 0.00 | 28 | 1010.5 |